Year,Month,Day,Hour,Minute,Value (Times are PST for temperature in C)
2010,08,13,00,00,15.40
2010,08,13,00,01,15.40
2010,08,13,00,02,15.40
2010,08,13,00,03,15.40
2010,08,13,00,04,15.40
2010,08,13,00,05,15.40
2010,08,13,00,06,15.50
2010,08,13,00,07,15.50
2010,08,13,00,08,15.50
2010,08,13,00,09,15.50
2010,08,13,00,10,15.60
2010,08,13,00,11,15.60
2010,08,13,00,12,15.60
2010,08,13,00,13,15.60
2010,08,13,00,14,15.70
2010,08,13,00,15,15.70
2010,08,13,00,16,15.80
2010,08,13,00,17,15.80
2010,08,13,00,18,15.80
2010,08,13,00,19,15.90
2010,08,13,00,20,15.90
2010,08,13,00,21,15.90
2010,08,13,00,22,15.90
2010,08,13,00,23,16.00
2010,08,13,00,24,16.00
2010,08,13,00,25,16.10
2010,08,13,00,26,16.10
2010,08,13,00,27,16.10
2010,08,13,00,28,16.20
2010,08,13,00,29,16.20
2010,08,13,00,30,16.20
2010,08,13,00,31,16.10
2010,08,13,00,32,16.10
2010,08,13,00,33,16.10
2010,08,13,00,34,16.10
2010,08,13,00,35,16.10
2010,08,13,00,36,16.10
2010,08,13,00,37,16.10
2010,08,13,00,38,16.10
2010,08,13,00,39,16.00
2010,08,13,00,40,16.00
2010,08,13,00,41,16.00
2010,08,13,00,42,16.00
2010,08,13,00,43,15.90
2010,08,13,00,44,16.00
2010,08,13,00,45,16.00
2010,08,13,00,46,16.00
2010,08,13,00,47,16.00
2010,08,13,00,48,16.10
2010,08,13,00,49,16.10
2010,08,13,00,50,16.10
2010,08,13,00,51,16.10
2010,08,13,00,52,16.20
2010,08,13,00,53,16.20
2010,08,13,00,54,16.20
2010,08,13,00,55,16.20
2010,08,13,00,56,16.20
2010,08,13,00,57,16.20
2010,08,13,00,58,16.10
2010,08,13,00,59,16.10
2010,08,13,01,00,16.10
2010,08,13,01,01,16.10
2010,08,13,01,02,16.10
2010,08,13,01,03,16.00
2010,08,13,01,04,16.00
2010,08,13,01,05,16.00
2010,08,13,01,06,15.90
2010,08,13,01,07,15.90
2010,08,13,01,08,15.90
2010,08,13,01,09,15.90
2010,08,13,01,10,15.80
2010,08,13,01,11,15.80
2010,08,13,01,12,15.80
2010,08,13,01,16,15.70
2010,08,13,01,17,15.70
2010,08,13,01,18,15.80
2010,08,13,01,19,15.80
2010,08,13,01,20,15.80
2010,08,13,01,21,15.80
2010,08,13,01,22,15.80
2010,08,13,01,23,15.80
2010,08,13,01,24,15.80
2010,08,13,01,25,15.80
2010,08,13,01,26,15.80
2010,08,13,01,27,15.80
2010,08,13,01,28,15.80
2010,08,13,01,29,15.80
2010,08,13,01,30,15.80
2010,08,13,01,31,15.80
2010,08,13,01,32,15.80
2010,08,13,01,33,15.80
2010,08,13,01,34,15.90
2010,08,13,01,35,15.90
2010,08,13,01,36,16.00
2010,08,13,01,37,16.00
2010,08,13,01,38,16.10
2010,08,13,01,39,16.10
2010,08,13,01,40,16.20
2010,08,13,01,41,16.20
2010,08,13,01,42,16.20
2010,08,13,01,43,16.30
2010,08,13,01,44,16.30
2010,08,13,01,45,16.30
2010,08,13,01,46,16.30
2010,08,13,01,47,16.30
2010,08,13,01,48,16.40
2010,08,13,01,49,16.40
2010,08,13,01,50,16.40
2010,08,13,01,51,16.50
2010,08,13,01,52,16.60
2010,08,13,01,53,16.60
2010,08,13,01,54,16.60
2010,08,13,01,55,16.60
2010,08,13,01,56,16.60
2010,08,13,01,57,16.60
2010,08,13,01,58,16.60
2010,08,13,01,59,16.60
2010,08,13,02,00,16.60
2010,08,13,02,01,16.60
2010,08,13,02,02,16.60
2010,08,13,02,03,16.50
2010,08,13,02,04,16.50
2010,08,13,02,05,16.50
2010,08,13,02,06,16.40
2010,08,13,02,07,16.40
2010,08,13,02,08,16.40
2010,08,13,02,09,16.40
2010,08,13,02,10,16.40
2010,08,13,02,11,16.40
2010,08,13,02,12,16.40
2010,08,13,02,13,16.40
2010,08,13,02,14,16.40
2010,08,13,02,15,16.40
2010,08,13,02,16,16.40
2010,08,13,02,17,16.30
2010,08,13,02,18,16.30
2010,08,13,02,19,16.30
2010,08,13,02,20,16.30
2010,08,13,02,21,16.30
2010,08,13,02,22,16.30
2010,08,13,02,23,16.30
2010,08,13,02,24,16.30
2010,08,13,02,25,16.30
2010,08,13,02,26,16.30
2010,08,13,02,27,16.30
2010,08,13,02,28,16.30
2010,08,13,02,29,16.30
2010,08,13,02,30,16.40
2010,08,13,02,31,16.40
2010,08,13,02,32,16.40
2010,08,13,02,33,16.40
2010,08,13,02,34,16.50
2010,08,13,02,35,16.50
2010,08,13,02,36,16.60
2010,08,13,02,37,16.60
2010,08,13,02,38,16.60
2010,08,13,02,39,16.60
2010,08,13,02,40,16.60
2010,08,13,02,41,16.60
2010,08,13,02,42,16.60
2010,08,13,02,43,16.70
2010,08,13,02,44,16.70
2010,08,13,02,45,16.80
2010,08,13,02,46,16.80
2010,08,13,02,47,16.70
2010,08,13,02,48,16.70
2010,08,13,02,49,16.70
2010,08,13,02,50,16.70
2010,08,13,02,51,16.70
2010,08,13,02,52,16.70
2010,08,13,02,53,16.70
2010,08,13,02,54,16.70
2010,08,13,02,55,16.60
2010,08,13,02,56,16.60
2010,08,13,02,57,16.60
2010,08,13,02,58,16.60
2010,08,13,02,59,16.60
2010,08,13,03,00,16.50
2010,08,13,03,01,16.50
2010,08,13,03,02,16.40
2010,08,13,03,03,16.40
2010,08,13,03,04,16.30
2010,08,13,03,05,16.30
2010,08,13,03,06,16.30
2010,08,13,03,07,16.20
2010,08,13,03,08,16.20
2010,08,13,03,09,16.20
2010,08,13,03,10,16.20
2010,08,13,03,11,16.20
2010,08,13,03,12,16.20
2010,08,13,03,13,16.10
2010,08,13,03,14,16.10
2010,08,13,03,15,16.10
2010,08,13,03,16,16.00
2010,08,13,03,17,16.00
2010,08,13,03,18,16.00
2010,08,13,03,19,16.00
2010,08,13,03,20,16.00
2010,08,13,03,21,16.00
2010,08,13,03,22,16.00
2010,08,13,03,23,16.00
2010,08,13,03,24,16.00
2010,08,13,03,25,16.00
2010,08,13,03,26,16.10
2010,08,13,03,27,16.10
2010,08,13,03,28,16.10
2010,08,13,03,29,16.10
2010,08,13,03,30,16.20
2010,08,13,03,31,16.20
2010,08,13,03,32,16.30
2010,08,13,03,33,16.40
2010,08,13,03,34,16.40
2010,08,13,03,35,16.50
2010,08,13,03,36,16.60
2010,08,13,03,37,16.70
2010,08,13,03,38,16.70
2010,08,13,03,39,16.80
2010,08,13,03,40,16.80
2010,08,13,03,41,16.80
2010,08,13,03,42,16.80
2010,08,13,03,43,16.80
2010,08,13,03,44,16.80
2010,08,13,03,45,16.80
2010,08,13,03,46,16.80
2010,08,13,03,47,16.80
2010,08,13,03,48,16.80
2010,08,13,03,49,16.70
2010,08,13,03,50,16.70
2010,08,13,03,51,16.60
2010,08,13,03,52,16.60
2010,08,13,03,53,16.60
2010,08,13,03,54,16.50
2010,08,13,03,55,16.50
2010,08,13,03,56,16.40
2010,08,13,03,57,16.40
2010,08,13,03,58,16.30
2010,08,13,03,59,16.30
2010,08,13,04,00,16.30
2010,08,13,04,01,16.20
2010,08,13,04,02,16.20
2010,08,13,04,03,16.10
2010,08,13,04,04,16.10
2010,08,13,04,05,16.00
2010,08,13,04,06,16.00
2010,08,13,04,07,16.00
2010,08,13,04,08,15.90
2010,08,13,04,09,15.90
2010,08,13,04,10,15.90
2010,08,13,04,11,15.90
2010,08,13,04,12,15.90
2010,08,13,04,13,15.90
2010,08,13,04,14,15.90
2010,08,13,04,15,15.90
2010,08,13,04,16,15.90
2010,08,13,04,17,15.80
2010,08,13,04,18,15.80
2010,08,13,04,19,15.80
2010,08,13,04,20,15.80
2010,08,13,04,21,15.80
2010,08,13,04,22,15.80
2010,08,13,04,23,15.80
2010,08,13,04,24,15.80
2010,08,13,04,25,15.80
2010,08,13,04,26,15.80
2010,08,13,04,27,15.80
2010,08,13,04,28,15.80
2010,08,13,04,29,15.80
2010,08,13,04,30,15.80
2010,08,13,04,31,15.80
2010,08,13,04,32,15.80
2010,08,13,04,33,15.80
2010,08,13,04,34,15.80
2010,08,13,04,35,15.80
2010,08,13,04,36,15.80
2010,08,13,04,37,15.80
2010,08,13,04,38,15.80
2010,08,13,04,39,15.80
2010,08,13,04,40,15.80
2010,08,13,04,41,15.80
2010,08,13,04,42,15.80
2010,08,13,04,43,15.80
2010,08,13,04,44,15.80
2010,08,13,04,45,15.80
2010,08,13,04,46,15.70
2010,08,13,04,47,15.70
2010,08,13,04,48,15.70
2010,08,13,04,49,15.70
2010,08,13,04,50,15.70
2010,08,13,04,51,15.70
2010,08,13,04,52,15.70
2010,08,13,04,53,15.70
2010,08,13,04,54,15.70
2010,08,13,04,55,15.70
2010,08,13,04,56,15.70
2010,08,13,04,57,15.80
2010,08,13,04,58,15.80
2010,08,13,04,59,15.80
2010,08,13,05,00,15.90
2010,08,13,05,01,15.90
2010,08,13,05,02,15.90
2010,08,13,05,03,15.90
2010,08,13,05,04,16.00
2010,08,13,05,05,16.00
2010,08,13,05,06,16.00
2010,08,13,05,07,16.10
2010,08,13,05,08,16.10
2010,08,13,05,09,16.10
2010,08,13,05,10,16.10
2010,08,13,05,11,16.10
2010,08,13,05,12,16.10
2010,08,13,05,13,16.10
2010,08,13,05,14,16.10
2010,08,13,05,15,16.10
2010,08,13,05,16,16.10
2010,08,13,05,17,16.10
2010,08,13,05,18,16.10
2010,08,13,05,19,16.10
2010,08,13,05,20,16.10
2010,08,13,05,21,16.20
2010,08,13,05,22,16.10
2010,08,13,05,23,16.10
2010,08,13,05,24,16.10
2010,08,13,05,25,16.10
2010,08,13,05,26,16.10
2010,08,13,05,27,16.10
2010,08,13,05,28,16.10
2010,08,13,05,29,16.10
2010,08,13,05,30,16.10
2010,08,13,05,31,16.00
2010,08,13,05,32,16.00
2010,08,13,05,33,16.00
2010,08,13,05,34,16.00
2010,08,13,05,35,15.90
2010,08,13,05,36,15.90
2010,08,13,05,37,15.90
2010,08,13,05,38,15.90
2010,08,13,05,39,16.00
2010,08,13,05,40,16.00
2010,08,13,05,41,16.10
2010,08,13,05,42,16.10
2010,08,13,05,43,16.10
2010,08,13,05,44,16.10
2010,08,13,05,45,16.10
2010,08,13,05,46,16.10
2010,08,13,05,47,16.10
2010,08,13,05,48,16.10
2010,08,13,05,49,16.10
2010,08,13,05,50,16.00
2010,08,13,05,51,16.00
2010,08,13,05,52,15.90
2010,08,13,05,53,15.90
2010,08,13,05,54,15.80
2010,08,13,05,55,15.80
2010,08,13,05,56,15.80
2010,08,13,05,57,15.70
2010,08,13,05,58,15.70
2010,08,13,05,59,15.60
2010,08,13,06,00,15.60
2010,08,13,06,01,15.50
2010,08,13,06,02,15.50
2010,08,13,06,03,15.40
2010,08,13,06,04,15.40
2010,08,13,06,05,15.30
2010,08,13,06,06,15.30
2010,08,13,06,07,15.30
2010,08,13,06,08,15.20
2010,08,13,06,09,15.20
2010,08,13,06,10,15.10
2010,08,13,06,11,15.10
2010,08,13,06,12,15.00
2010,08,13,06,13,15.00
2010,08,13,06,14,15.00
2010,08,13,06,15,15.00
2010,08,13,06,16,15.00
2010,08,13,06,17,15.00
2010,08,13,06,18,15.00
2010,08,13,06,19,15.00
2010,08,13,06,20,15.00
2010,08,13,06,21,15.00
2010,08,13,06,22,15.00
2010,08,13,06,23,15.00
2010,08,13,06,24,15.00
2010,08,13,06,25,15.00
2010,08,13,06,26,15.00
2010,08,13,06,27,15.00
2010,08,13,06,28,15.00
2010,08,13,06,29,15.00
2010,08,13,06,30,15.00
2010,08,13,06,31,15.00
2010,08,13,06,32,15.00
2010,08,13,06,33,15.00
2010,08,13,06,34,15.00
2010,08,13,06,35,15.00
2010,08,13,06,36,15.00
2010,08,13,06,37,15.00
2010,08,13,06,38,15.00
2010,08,13,06,39,15.00
2010,08,13,06,40,15.00
2010,08,13,06,41,15.00
2010,08,13,06,42,15.00
2010,08,13,06,43,15.00
2010,08,13,06,44,15.00
2010,08,13,06,45,15.00
2010,08,13,06,46,15.00
2010,08,13,06,47,15.00
2010,08,13,06,48,15.00
2010,08,13,06,49,15.10
2010,08,13,06,50,15.10
2010,08,13,06,51,15.20
2010,08,13,06,52,15.20
2010,08,13,06,53,15.30
2010,08,13,06,54,15.30
2010,08,13,06,55,15.40
2010,08,13,06,56,15.50
2010,08,13,06,57,15.50
2010,08,13,06,58,15.60
2010,08,13,06,59,15.70
2010,08,13,07,00,15.70
2010,08,13,07,01,15.80
2010,08,13,07,02,15.80
2010,08,13,07,03,15.80
2010,08,13,07,04,15.90
2010,08,13,07,05,15.90
2010,08,13,07,06,15.90
2010,08,13,07,07,15.90
2010,08,13,07,08,16.00
2010,08,13,07,09,16.00
2010,08,13,07,10,16.00
2010,08,13,07,11,16.10
2010,08,13,07,12,16.10
2010,08,13,07,13,16.10
2010,08,13,07,14,16.20
2010,08,13,07,15,16.20
2010,08,13,07,16,16.20
2010,08,13,07,17,16.30
2010,08,13,07,18,16.30
2010,08,13,07,19,16.40
2010,08,13,07,20,16.40
2010,08,13,07,21,16.40
2010,08,13,07,22,16.50
2010,08,13,07,23,16.60
2010,08,13,07,24,16.60
2010,08,13,07,25,16.60
2010,08,13,07,26,16.70
2010,08,13,07,27,16.70
2010,08,13,07,28,16.80
2010,08,13,07,29,16.80
2010,08,13,07,30,16.90
2010,08,13,07,31,17.00
2010,08,13,07,32,17.00
2010,08,13,07,33,17.10
2010,08,13,07,34,17.10
2010,08,13,07,35,17.20
2010,08,13,07,36,17.30
2010,08,13,07,37,17.40
2010,08,13,07,38,17.50
2010,08,13,07,39,17.50
2010,08,13,07,40,17.60
2010,08,13,07,41,17.70
2010,08,13,07,42,17.80
2010,08,13,07,43,17.90
2010,08,13,07,44,18.00
2010,08,13,07,45,18.20
2010,08,13,07,46,18.30
2010,08,13,07,47,18.50
2010,08,13,07,48,18.60
2010,08,13,07,49,18.60
2010,08,13,07,50,18.70
2010,08,13,07,51,18.80
2010,08,13,07,52,18.90
2010,08,13,07,53,18.90
2010,08,13,07,54,19.00
2010,08,13,07,55,19.10
2010,08,13,07,56,19.10
2010,08,13,07,57,19.20
2010,08,13,07,58,19.30
2010,08,13,07,59,19.30
2010,08,13,08,00,19.40
2010,08,13,08,01,19.50
2010,08,13,08,02,19.60
2010,08,13,08,03,19.70
2010,08,13,08,04,19.70
2010,08,13,08,05,19.70
2010,08,13,08,06,19.60
2010,08,13,08,07,19.60
2010,08,13,08,08,19.60
2010,08,13,08,09,19.60
2010,08,13,08,10,19.60
2010,08,13,08,11,19.60
2010,08,13,08,12,19.60
2010,08,13,08,13,19.60
2010,08,13,08,14,19.70
2010,08,13,08,15,19.70
2010,08,13,08,16,19.70
2010,08,13,08,17,19.70
2010,08,13,08,18,19.70
2010,08,13,08,19,19.70
2010,08,13,08,20,19.80
2010,08,13,08,21,19.80
2010,08,13,08,22,19.80
2010,08,13,08,23,19.80
2010,08,13,08,24,19.80
2010,08,13,08,25,19.80
2010,08,13,08,26,19.80
2010,08,13,08,27,19.80
2010,08,13,08,28,19.80
2010,08,13,08,29,19.90
2010,08,13,08,30,19.90
2010,08,13,08,31,19.80
2010,08,13,08,32,19.90
2010,08,13,08,33,19.90
2010,08,13,08,34,19.90
2010,08,13,08,35,19.90
2010,08,13,08,36,20.00
2010,08,13,08,37,20.00
2010,08,13,08,38,20.10
2010,08,13,08,39,20.10
2010,08,13,08,40,20.20
2010,08,13,08,41,20.20
2010,08,13,08,42,20.30
2010,08,13,08,43,20.30
2010,08,13,08,44,20.30
2010,08,13,08,45,20.30
2010,08,13,08,46,20.40
2010,08,13,08,47,20.40
2010,08,13,08,48,20.40
2010,08,13,08,49,20.40
2010,08,13,08,50,20.40
2010,08,13,08,51,20.40
2010,08,13,08,52,20.40
2010,08,13,08,53,20.50
2010,08,13,08,54,20.50
2010,08,13,08,55,20.50
2010,08,13,08,56,20.50
2010,08,13,08,57,20.50
2010,08,13,08,58,20.50
2010,08,13,08,59,20.50
2010,08,13,09,00,20.50
2010,08,13,09,01,20.50
2010,08,13,09,02,20.60
2010,08,13,09,03,20.60
2010,08,13,09,04,20.70
2010,08,13,09,05,20.70
2010,08,13,09,06,20.80
2010,08,13,09,07,20.80
2010,08,13,09,08,20.90
2010,08,13,09,09,21.00
2010,08,13,09,10,21.00
2010,08,13,09,11,21.10
2010,08,13,09,12,21.10
2010,08,13,09,13,21.10
2010,08,13,09,14,21.10
2010,08,13,09,15,21.10
2010,08,13,09,16,21.10
2010,08,13,09,17,21.20
2010,08,13,09,18,21.20
2010,08,13,09,19,21.20
2010,08,13,09,20,21.30
2010,08,13,09,21,21.30
2010,08,13,09,22,21.40
2010,08,13,09,23,21.40
2010,08,13,09,24,21.40
2010,08,13,09,25,21.50
2010,08,13,09,26,21.50
2010,08,13,09,27,21.60
2010,08,13,09,28,21.60
2010,08,13,09,29,21.70
2010,08,13,09,30,21.70
2010,08,13,09,31,21.70
2010,08,13,09,32,21.80
2010,08,13,09,33,21.80
2010,08,13,09,34,21.80
2010,08,13,09,35,21.80
2010,08,13,09,36,21.90
2010,08,13,09,37,21.90
2010,08,13,09,38,22.00
2010,08,13,09,39,22.10
2010,08,13,09,40,22.20
2010,08,13,09,41,22.20
2010,08,13,09,42,22.20
2010,08,13,09,43,22.30
2010,08,13,09,44,22.30
2010,08,13,09,45,22.30
2010,08,13,09,46,22.30
2010,08,13,09,47,22.40
2010,08,13,09,48,22.50
2010,08,13,09,49,22.60
2010,08,13,09,50,22.70
2010,08,13,09,51,22.80
2010,08,13,09,52,22.90
2010,08,13,09,53,23.00
2010,08,13,09,54,23.10
2010,08,13,09,55,23.10
2010,08,13,09,56,23.20
2010,08,13,09,57,23.30
2010,08,13,09,58,23.30
2010,08,13,09,59,23.30
2010,08,13,10,00,23.40
2010,08,13,10,01,23.40
2010,08,13,10,02,23.50
2010,08,13,10,03,23.40
2010,08,13,10,04,23.40
2010,08,13,10,05,23.40
2010,08,13,10,06,23.50
2010,08,13,10,07,23.60
2010,08,13,10,08,23.60
2010,08,13,10,09,23.70
2010,08,13,10,10,23.80
2010,08,13,10,11,23.90
2010,08,13,10,12,23.90
2010,08,13,10,13,24.00
2010,08,13,10,14,24.00
2010,08,13,10,15,24.10
2010,08,13,10,16,24.10
2010,08,13,10,17,24.20
2010,08,13,10,18,24.20
2010,08,13,10,19,24.30
2010,08,13,10,20,24.40
2010,08,13,10,21,24.50
2010,08,13,10,22,24.50
2010,08,13,10,23,24.60
2010,08,13,10,24,24.70
2010,08,13,10,25,24.70
2010,08,13,10,26,24.70
2010,08,13,10,27,24.60
2010,08,13,10,28,24.60
2010,08,13,10,29,24.70
2010,08,13,10,30,24.70
2010,08,13,10,31,24.70
2010,08,13,10,32,24.70
2010,08,13,10,33,24.70
2010,08,13,10,34,24.70
2010,08,13,10,35,24.70
2010,08,13,10,36,24.70
2010,08,13,10,37,24.60
2010,08,13,10,38,24.70
2010,08,13,10,39,24.70
2010,08,13,10,40,24.70
2010,08,13,10,41,24.60
2010,08,13,10,42,24.60
2010,08,13,10,43,24.60
2010,08,13,10,44,24.60
2010,08,13,10,45,24.60
2010,08,13,10,46,24.60
2010,08,13,10,47,24.70
2010,08,13,10,48,24.70
2010,08,13,10,49,24.70
2010,08,13,10,50,24.70
2010,08,13,10,51,24.70
2010,08,13,10,52,24.60
2010,08,13,10,53,24.60
2010,08,13,10,54,24.60
2010,08,13,10,55,24.70
2010,08,13,10,56,24.70
2010,08,13,10,57,24.70
2010,08,13,10,58,24.60
2010,08,13,10,59,24.60
2010,08,13,11,00,24.60
2010,08,13,11,01,24.60
2010,08,13,11,02,24.60
2010,08,13,11,03,24.70
2010,08,13,11,04,24.80
2010,08,13,11,05,24.90
2010,08,13,11,06,25.00
2010,08,13,11,07,25.10
2010,08,13,11,08,25.30
2010,08,13,11,09,25.40
2010,08,13,11,10,25.40
2010,08,13,11,11,25.50
2010,08,13,11,12,25.60
2010,08,13,11,13,25.60
2010,08,13,11,14,25.60
2010,08,13,11,15,25.60
2010,08,13,11,16,25.70
2010,08,13,11,17,25.80
2010,08,13,11,18,25.80
2010,08,13,11,19,25.80
2010,08,13,11,20,25.90
2010,08,13,11,21,25.90
2010,08,13,11,22,25.90
2010,08,13,11,23,25.90
2010,08,13,11,24,25.90
2010,08,13,11,25,25.90
2010,08,13,11,26,25.80
2010,08,13,11,27,25.80
2010,08,13,11,28,25.70
2010,08,13,11,29,25.70
2010,08,13,11,30,25.70
2010,08,13,11,31,25.70
2010,08,13,11,32,25.70
2010,08,13,11,33,25.70
2010,08,13,11,34,25.70
2010,08,13,11,35,25.70
2010,08,13,11,36,25.70
2010,08,13,11,37,25.70
2010,08,13,11,38,25.70
2010,08,13,11,39,25.80
2010,08,13,11,40,25.90
2010,08,13,11,41,25.90
2010,08,13,11,42,25.90
2010,08,13,11,43,25.90
2010,08,13,11,44,25.90
2010,08,13,11,45,25.90
2010,08,13,11,46,25.90
2010,08,13,11,47,25.90
2010,08,13,11,48,25.90
2010,08,13,11,49,25.90
2010,08,13,11,50,26.00
2010,08,13,11,51,26.10
2010,08,13,11,52,26.20
2010,08,13,11,53,26.20
2010,08,13,11,54,26.30
2010,08,13,11,55,26.30
2010,08,13,11,56,26.40
2010,08,13,11,57,26.40
2010,08,13,11,58,26.40
2010,08,13,11,59,26.40
2010,08,13,12,00,26.50
2010,08,13,12,01,26.60
2010,08,13,12,02,26.70
2010,08,13,12,03,26.80
2010,08,13,12,04,26.90
2010,08,13,12,05,26.90
2010,08,13,12,06,27.00
2010,08,13,12,07,27.10
2010,08,13,12,08,27.10
2010,08,13,12,09,27.20
2010,08,13,12,10,27.20
2010,08,13,12,11,27.20
2010,08,13,12,12,27.00
2010,08,13,12,13,27.00
2010,08,13,12,14,27.00
2010,08,13,12,15,27.00
2010,08,13,12,16,27.00
2010,08,13,12,17,27.00
2010,08,13,12,18,26.90
2010,08,13,12,19,26.90
2010,08,13,12,20,27.00
2010,08,13,12,21,27.00
2010,08,13,12,22,27.10
2010,08,13,12,23,27.20
2010,08,13,12,24,27.20
2010,08,13,12,25,27.30
2010,08,13,12,26,27.20
2010,08,13,12,27,27.20
2010,08,13,12,28,27.20
2010,08,13,12,29,27.30
2010,08,13,12,30,27.30
2010,08,13,12,31,27.20
2010,08,13,12,32,27.30
2010,08,13,12,33,27.30
2010,08,13,12,34,27.30
2010,08,13,12,35,27.40
2010,08,13,12,36,27.30
2010,08,13,12,37,27.20
2010,08,13,12,38,27.20
2010,08,13,12,39,27.20
2010,08,13,12,40,27.20
2010,08,13,12,41,27.30
2010,08,13,12,42,27.30
2010,08,13,12,43,27.30
2010,08,13,12,44,27.20
2010,08,13,12,45,27.20
2010,08,13,12,46,27.20
2010,08,13,12,47,27.20
2010,08,13,12,48,27.30
2010,08,13,12,49,27.30
2010,08,13,12,50,27.30
2010,08,13,12,51,27.30
2010,08,13,12,52,27.40
2010,08,13,12,53,27.40
2010,08,13,12,54,27.50
2010,08,13,12,55,27.50
2010,08,13,12,56,27.50
2010,08,13,12,57,27.60
2010,08,13,12,58,27.60
2010,08,13,12,59,27.60
2010,08,13,13,00,27.70
2010,08,13,13,01,27.80
2010,08,13,13,02,27.90
2010,08,13,13,03,27.90
2010,08,13,13,04,28.00
2010,08,13,13,05,28.00
2010,08,13,13,06,27.90
2010,08,13,13,07,27.60
2010,08,13,13,08,27.20
2010,08,13,13,09,26.90
2010,08,13,13,10,26.70
2010,08,13,13,11,26.60
2010,08,13,13,12,26.50
2010,08,13,13,13,26.50
2010,08,13,13,14,26.60
2010,08,13,13,15,26.70
2010,08,13,13,16,26.80
2010,08,13,13,17,26.90
2010,08,13,13,18,27.00
2010,08,13,13,19,27.10
2010,08,13,13,20,27.10
2010,08,13,13,21,27.10
2010,08,13,13,22,27.10
2010,08,13,13,23,27.20
2010,08,13,13,24,27.30
2010,08,13,13,25,27.40
2010,08,13,13,26,27.60
2010,08,13,13,27,27.70
2010,08,13,13,28,27.80
2010,08,13,13,29,27.90
2010,08,13,13,30,28.00
2010,08,13,13,31,28.10
2010,08,13,13,32,28.20
2010,08,13,13,33,28.30
2010,08,13,13,34,28.40
2010,08,13,13,35,28.50
2010,08,13,13,36,28.60
2010,08,13,13,37,28.70
2010,08,13,13,38,28.70
2010,08,13,13,39,28.70
2010,08,13,13,40,28.70
2010,08,13,13,41,28.70
2010,08,13,13,42,28.70
2010,08,13,13,43,28.80
2010,08,13,13,44,28.90
2010,08,13,13,45,29.00
2010,08,13,13,46,29.10
2010,08,13,13,47,29.20
2010,08,13,13,48,29.30
2010,08,13,13,49,29.40
2010,08,13,13,50,29.50
2010,08,13,13,51,29.60
2010,08,13,13,52,29.70
2010,08,13,13,53,29.80
2010,08,13,13,54,29.90
2010,08,13,13,55,30.00
2010,08,13,13,56,30.00
2010,08,13,13,57,30.00
2010,08,13,13,58,30.00
2010,08,13,13,59,30.10
2010,08,13,14,00,30.10
2010,08,13,14,01,30.20
2010,08,13,14,02,30.20
2010,08,13,14,03,30.20
2010,08,13,14,04,30.20
2010,08,13,14,05,30.30
2010,08,13,14,06,30.30
2010,08,13,14,07,30.40
2010,08,13,14,08,30.50
2010,08,13,14,09,30.60
2010,08,13,14,10,30.60
2010,08,13,14,11,30.60
2010,08,13,14,12,30.50
2010,08,13,14,13,30.50
2010,08,13,14,14,30.40
2010,08,13,14,15,30.40
2010,08,13,14,16,30.30
2010,08,13,14,17,30.20
2010,08,13,14,18,29.90
2010,08,13,14,19,29.60
2010,08,13,14,20,29.40
2010,08,13,14,21,29.30
2010,08,13,14,22,29.20
2010,08,13,14,23,29.00
2010,08,13,14,24,28.80
2010,08,13,14,25,28.70
2010,08,13,14,26,28.60
2010,08,13,14,27,28.60
2010,08,13,14,28,28.60
2010,08,13,14,29,28.60
2010,08,13,14,30,28.70
2010,08,13,14,31,28.70
2010,08,13,14,32,28.80
2010,08,13,14,33,28.90
2010,08,13,14,34,28.90
2010,08,13,14,35,29.00
2010,08,13,14,36,29.00
2010,08,13,14,37,29.10
2010,08,13,14,38,29.20
2010,08,13,14,39,29.30
2010,08,13,14,40,29.40
2010,08,13,14,41,29.50
2010,08,13,14,42,29.60
2010,08,13,14,43,29.70
2010,08,13,14,44,29.80
2010,08,13,14,45,29.90
2010,08,13,14,46,30.00
2010,08,13,14,47,30.00
2010,08,13,14,48,30.10
2010,08,13,14,49,30.10
2010,08,13,14,50,30.20
2010,08,13,14,51,30.20
2010,08,13,14,52,30.20
2010,08,13,14,53,30.30
2010,08,13,14,54,30.30
2010,08,13,14,55,30.30
2010,08,13,14,56,30.30
2010,08,13,14,57,30.30
2010,08,13,14,58,30.30
2010,08,13,14,59,30.30
2010,08,13,15,00,30.30
2010,08,13,15,01,30.20
2010,08,13,15,02,30.10
2010,08,13,15,03,30.00
2010,08,13,15,04,29.90
2010,08,13,15,05,29.70
2010,08,13,15,06,29.60
2010,08,13,15,07,29.50
2010,08,13,15,08,29.30
2010,08,13,15,09,29.20
2010,08,13,15,10,29.20
2010,08,13,15,11,29.20
2010,08,13,15,12,29.20
2010,08,13,15,13,29.30
2010,08,13,15,14,29.30
2010,08,13,15,15,29.30
2010,08,13,15,16,29.30
2010,08,13,15,17,29.30
2010,08,13,15,18,29.30
2010,08,13,15,19,29.40
2010,08,13,15,20,29.40
2010,08,13,15,21,29.40
2010,08,13,15,22,29.40
2010,08,13,15,23,29.40
2010,08,13,15,24,29.40
2010,08,13,15,25,29.30
2010,08,13,15,26,29.30
2010,08,13,15,27,29.30
2010,08,13,15,28,29.30
2010,08,13,15,29,29.40
2010,08,13,15,30,29.40
2010,08,13,15,31,29.40
2010,08,13,15,32,29.20
2010,08,13,15,33,29.20
2010,08,13,15,34,29.20
2010,08,13,15,35,29.10
2010,08,13,15,36,29.10
2010,08,13,15,37,29.00
2010,08,13,15,38,29.00
2010,08,13,15,39,29.00
2010,08,13,15,40,28.90
2010,08,13,15,41,28.80
2010,08,13,15,42,28.80
2010,08,13,15,43,28.80
2010,08,13,15,44,28.70
2010,08,13,15,45,28.70
2010,08,13,15,46,28.60
2010,08,13,15,47,28.60
2010,08,13,15,48,28.50
2010,08,13,15,49,28.50
2010,08,13,15,50,28.50
2010,08,13,15,51,28.40
2010,08,13,15,52,28.40
2010,08,13,15,53,28.50
2010,08,13,15,54,28.60
2010,08,13,15,55,28.70
2010,08,13,15,56,28.80
2010,08,13,15,57,28.90
2010,08,13,15,58,28.80
2010,08,13,15,59,28.80
2010,08,13,16,00,28.80
2010,08,13,16,01,28.70
2010,08,13,16,02,28.70
2010,08,13,16,03,28.80
2010,08,13,16,04,28.80
2010,08,13,16,05,28.90
2010,08,13,16,06,29.00
2010,08,13,16,07,29.10
2010,08,13,16,08,29.20
2010,08,13,16,09,29.30
2010,08,13,16,10,29.30
2010,08,13,16,11,29.40
2010,08,13,16,12,29.60
2010,08,13,16,13,29.70
2010,08,13,16,14,29.60
2010,08,13,16,15,29.50
2010,08,13,16,16,29.40
2010,08,13,16,17,29.30
2010,08,13,16,18,29.30
2010,08,13,16,19,29.40
2010,08,13,16,20,29.40
2010,08,13,16,21,29.50
2010,08,13,16,22,29.60
2010,08,13,16,23,29.50
2010,08,13,16,24,29.50
2010,08,13,16,25,29.60
2010,08,13,16,26,29.60
2010,08,13,16,27,29.60
2010,08,13,16,28,29.60
2010,08,13,16,29,29.70
2010,08,13,16,30,29.80
2010,08,13,16,31,29.90
2010,08,13,16,32,30.00
2010,08,13,16,33,30.00
2010,08,13,16,34,30.10
2010,08,13,16,35,30.20
2010,08,13,16,36,30.20
2010,08,13,16,37,30.20
2010,08,13,16,38,30.20
2010,08,13,16,39,30.20
2010,08,13,16,40,30.20
2010,08,13,16,41,30.30
2010,08,13,16,42,30.30
2010,08,13,16,43,30.40
2010,08,13,16,44,30.40
2010,08,13,16,45,30.40
2010,08,13,16,46,30.40
2010,08,13,16,47,30.30
2010,08,13,16,48,30.30
2010,08,13,16,49,30.40
2010,08,13,16,50,30.30
2010,08,13,16,51,30.30
2010,08,13,16,52,30.40
2010,08,13,16,53,30.40
2010,08,13,16,54,30.40
2010,08,13,16,55,30.40
2010,08,13,16,56,30.40
2010,08,13,16,57,30.40
2010,08,13,16,58,30.50
2010,08,13,16,59,30.50
2010,08,13,17,00,30.60
2010,08,13,17,01,30.70
2010,08,13,17,02,30.80
2010,08,13,17,03,30.80
2010,08,13,17,04,30.90
2010,08,13,17,05,31.00
2010,08,13,17,06,31.00
2010,08,13,17,07,31.10
2010,08,13,17,08,31.10
2010,08,13,17,09,31.10
2010,08,13,17,10,31.20
2010,08,13,17,11,31.20
2010,08,13,17,12,31.30
2010,08,13,17,13,31.30
2010,08,13,17,14,31.30
2010,08,13,17,15,31.30
2010,08,13,17,16,31.20
2010,08,13,17,17,31.20
2010,08,13,17,18,31.20
2010,08,13,17,19,31.10
2010,08,13,17,20,31.10
2010,08,13,17,21,31.10
2010,08,13,17,22,31.10